Retour au catalogue

COSMOS 2251 DEB

ActifLEO
NORAD 33762·DEBRIS·🇷🇺 Russia

Lancé Jun 16, 1993 depuis Plesetsk Cosmodrome

Loading…

Prochains Passages (prochaines 24 heures)

TLE

FraisSource: Space-Track

Époque: Sep 14, 2026, 05:05 UTC

1 33762U 93036K   26257.21214498  .00000076  00000-0  36640-4 0  9991
2 33762  74.0424 166.3747 0015070 169.2326 343.5345 14.33732755919950

Suivez COSMOS 2251 DEB en temps réel avec AllMySat

Download on the App Store